Time,TemperatureF,DewpointF,PressureIn,WindDirection,WindDirectionDegrees,WindSpeedMPH,WindSpeedGustMPH,Humidity,HourlyPrecipIn,Conditions,Clouds,dailyrainin,SolarRadiationWatts/m^2,SoftwareType,DateUTC
2013-02-24 00:00:00,47.5,28.8,30.21,ESE,112,1.3,3.1,48,0.00,,,0.00,0.00,VWS V14.01,2013-02-24 08:00:00,
2013-02-24 00:04:00,48.7,29.9,30.21,South,180,0.0,2.5,48,0.00,,,0.00,0.00,VWS V14.01,2013-02-24 08:04:00,
2013-02-24 00:09:00,48.7,29.9,30.21,SSE,158,0.0,3.6,48,0.00,,,0.00,0.00,VWS V14.01,2013-02-24 08:09:00,
2013-02-24 00:14:00,48.4,30.1,30.21,SSW,202,2.2,3.6,49,0.00,,,0.00,0.00,VWS V14.01,2013-02-24 08:14:00,
2013-02-24 00:15:00,47.5,28.8,30.21,West,270,0.0,5.4,48,0.00,,,0.00,0.00,VWS V14.01,2013-02-24 08:15:00,
2013-02-24 00:19:00,48.6,29.3,30.21,SE,135,0.0,3.4,47,0.00,,,0.00,0.00,VWS V14.01,2013-02-24 08:19:00,
2013-02-24 00:24:00,48.7,28.9,30.21,East,90,2.7,3.4,46,0.00,,,0.00,0.00,VWS V14.01,2013-02-24 08:24:00,
2013-02-24 00:29:00,48.6,29.3,30.21,NE,45,4.0,4.0,47,0.00,,,0.00,0.00,VWS V14.01,2013-02-24 08:29:00,
2013-02-24 00:30:00,47.3,28.1,30.21,SSW,202,0.0,3.1,47,0.00,,,0.00,0.00,VWS V14.01,2013-02-24 08:30:00,
2013-02-24 00:34:00,48.4,29.6,30.21,WSW,248,0.0,3.6,48,0.00,,,0.00,0.00,VWS V14.01,2013-02-24 08:34:00,
2013-02-24 00:39:00,48.4,28.6,30.21,NNE,22,5.6,5.6,46,0.00,,,0.00,0.00,VWS V14.01,2013-02-24 08:39:00,
2013-02-24 00:44:00,48.2,28.9,30.21,East,90,3.1,5.6,47,0.00,,,0.00,0.00,VWS V14.01,2013-02-24 08:44:00,
2013-02-24 00:45:00,47.5,28.3,30.21,SW,225,0.0,4.3,47,0.00,,,0.00,0.00,VWS V14.01,2013-02-24 08:45:00,
2013-02-24 00:49:00,48.0,28.8,30.21,ESE,112,1.3,3.1,47,0.00,,,0.00,0.00,VWS V14.01,2013-02-24 08:49:00,
2013-02-24 00:54:00,48.2,28.9,30.21,ESE,112,0.0,3.1,47,0.00,,,0.00,0.00,VWS V14.01,2013-02-24 08:54:00,
2013-02-24 00:59:00,47.7,29.0,30.21,ESE,112,0.0,3.1,48,0.00,,,0.00,0.00,VWS V14.01,2013-02-24 08:59:00,
2013-02-24 01:00:00,47.3,27.6,30.21,South,180,0.0,0.0,46,0.00,,,0.00,0.00,VWS V14.01,2013-02-24 09:00:00,
2013-02-24 01:04:00,48.4,28.6,30.21,NNW,338,2.7,5.4,46,0.00,,,0.00,0.00,VWS V14.01,2013-02-24 09:04:00,
2013-02-24 01:09:00,48.0,28.8,30.21,SSE,158,2.5,5.4,47,0.00,,,0.00,0.00,VWS V14.01,2013-02-24 09:09:00,
2013-02-24 01:14:00,47.5,28.8,30.21,ESE,112,0.0,5.4,48,0.00,,,0.00,0.00,VWS V14.01,2013-02-24 09:14:00,
2013-02-24 01:15:00,47.8,28.1,30.21,South,180,2.9,7.2,46,0.00,,,0.00,0.00,VWS V14.01,2013-02-24 09:15:00,
2013-02-24 01:19:00,47.3,28.1,30.21,SSE,158,0.0,2.2,47,0.00,,,0.00,0.00,VWS V14.01,2013-02-24 09:19:00,
2013-02-24 01:24:00,47.3,28.1,30.21,SSE,158,0.0,2.2,47,0.00,,,0.00,0.00,VWS V14.01,2013-02-24 09:24:00,
2013-02-24 01:29:00,47.3,28.1,30.21,SSW,202,0.0,3.1,47,0.00,,,0.00,0.00,VWS V14.01,2013-02-24 09:29:00,
2013-02-24 01:30:00,48.4,26.9,30.21,East,90,2.5,3.6,43,0.00,,,0.00,0.00,VWS V14.01,2013-02-24 09:30:00,
2013-02-24 01:34:00,46.9,28.8,30.21,SSE,158,0.0,0.0,49,0.00,,,0.00,0.00,VWS V14.01,2013-02-24 09:34:00,
2013-02-24 01:39:00,47.3,27.6,30.21,South,180,0.0,3.4,46,0.00,,,0.00,0.00,VWS V14.01,2013-02-24 09:39:00,
2013-02-24 01:44:00,47.5,28.3,30.21,SW,225,0.0,4.3,47,0.00,,,0.00,0.00,VWS V14.01,2013-02-24 09:44:00,
2013-02-24 01:45:00,49.5,27.3,30.18,East,90,3.4,5.4,42,0.00,,,0.00,0.00,VWS V14.01,2013-02-24 09:45:00,
2013-02-24 01:49:00,46.9,28.8,30.21,SW,225,0.0,0.0,49,0.00,,,0.00,0.00,VWS V14.01,2013-02-24 09:49:00,
2013-02-24 01:55:00,46.9,27.8,30.21,SE,135,0.0,0.0,47,0.00,,,0.00,0.00,VWS V14.01,2013-02-24 09:55:00,
2013-02-24 02:00:00,47.3,27.6,30.21,South,180,0.0,0.0,46,0.00,,,0.00,0.00,VWS V14.01,2013-02-24 10:00:00,
2013-02-24 02:05:00,47.5,28.3,30.21,SE,135,0.0,3.4,47,0.00,,,0.00,0.00,VWS V14.01,2013-02-24 10:05:00,
2013-02-24 02:10:00,46.9,27.8,30.21,SW,225,3.1,3.4,47,0.00,,,0.00,0.00,VWS V14.01,2013-02-24 10:10:00,
2013-02-24 02:15:00,47.8,28.1,30.21,South,180,2.9,7.2,46,0.00,,,0.00,0.00,VWS V14.01,2013-02-24 10:15:00,
2013-02-24 02:20:00,47.7,28.4,30.21,SSW,202,2.2,3.6,47,0.00,,,0.00,0.00,VWS V14.01,2013-02-24 10:20:00,
2013-02-24 02:25:00,47.7,26.8,30.21,SSW,202,2.2,3.6,44,0.00,,,0.00,0.00,VWS V14.01,2013-02-24 10:25:00,
2013-02-24 02:30:00,48.4,26.9,30.21,NE,45,3.1,3.1,43,0.00,,,0.00,0.00,VWS V14.01,2013-02-24 10:30:00,
2013-02-24 02:35:00,48.7,27.3,30.21,East,90,1.1,3.1,43,0.00,,,0.00,0.00,VWS V14.01,2013-02-24 10:35:00,
2013-02-24 02:40:00,48.7,26.7,30.21,SE,135,2.9,4.9,42,0.00,,,0.00,0.00,VWS V14.01,2013-02-24 10:40:00,
2013-02-24 02:45:00,49.5,27.3,30.18,East,90,3.4,3.4,42,0.00,,,0.00,0.00,VWS V14.01,2013-02-24 10:45:00,
2013-02-24 02:50:00,49.1,27.0,30.18,South,180,3.1,3.4,42,0.00,,,0.00,0.00,VWS V14.01,2013-02-24 10:50:00,
2013-02-24 02:55:00,49.1,26.4,30.18,East,90,2.7,3.6,41,0.00,,,0.00,0.00,VWS V14.01,2013-02-24 10:55:00,
2013-02-24 03:00:00,48.7,26.7,30.18,South,180,2.2,2.2,42,0.00,,,0.00,0.00,VWS V14.01,2013-02-24 11:00:00,
2013-02-24 03:05:00,48.9,26.3,30.18,SW,225,2.2,4.0,41,0.00,,,0.00,0.00,VWS V14.01,2013-02-24 11:05:00,
2013-02-24 03:10:00,48.0,26.6,30.18,South,180,0.0,4.0,43,0.00,,,0.00,0.00,VWS V14.01,2013-02-24 11:10:00,
2013-02-24 03:15:00,47.8,26.4,30.18,SW,225,2.9,2.9,43,0.00,,,0.00,0.00,VWS V14.01,2013-02-24 11:15:00,
2013-02-24 03:20:00,47.1,25.8,30.18,South,180,2.5,3.6,43,0.00,,,0.00,0.00,VWS V14.01,2013-02-24 11:20:00,
2013-02-24 03:25:00,46.8,26.0,30.18,SSW,202,0.0,3.6,44,0.00,,,0.00,0.00,VWS V14.01,2013-02-24 11:25:00,
2013-02-24 03:30:00,46.9,26.2,30.18,SSW,202,0.0,1.3,44,0.00,,,0.00,0.00,VWS V14.01,2013-02-24 11:30:00,
2013-02-24 03:35:00,46.6,26.4,30.18,West,270,0.0,3.1,45,0.00,,,0.00,0.00,VWS V14.01,2013-02-24 11:35:00,
2013-02-24 03:40:00,46.8,25.5,30.18,West,270,2.0,3.4,43,0.00,,,0.00,0.00,VWS V14.01,2013-02-24 11:40:00,
2013-02-24 03:45:00,46.9,26.2,30.18,SSW,202,2.0,2.0,44,0.00,,,0.00,0.00,VWS V14.01,2013-02-24 11:45:00,
2013-02-24 03:50:00,47.1,26.3,30.18,SW,225,2.5,3.6,44,0.00,,,0.00,0.00,VWS V14.01,2013-02-24 11:50:00,
2013-02-24 03:55:00,46.8,26.0,30.18,SW,225,2.5,3.6,44,0.00,,,0.00,0.00,VWS V14.01,2013-02-24 11:55:00,
2013-02-24 04:00:00,46.6,25.9,30.18,South,180,0.0,0.9,44,0.00,,,0.00,0.00,VWS V14.01,2013-02-24 12:00:00,
2013-02-24 04:05:00,47.1,25.8,30.18,South,180,0.0,1.3,43,0.00,,,0.00,0.00,VWS V14.01,2013-02-24 12:05:00,
2013-02-24 04:10:00,46.8,26.0,30.18,South,180,0.0,2.0,44,0.00,,,0.00,0.00,VWS V14.01,2013-02-24 12:10:00,
2013-02-24 04:15:00,46.8,26.0,30.18,ESE,112,2.7,4.3,44,0.00,,,0.00,0.00,VWS V14.01,2013-02-24 12:15:00,
2013-02-24 04:20:00,46.8,26.0,30.18,SSW,202,1.1,4.3,44,0.00,,,0.00,0.00,VWS V14.01,2013-02-24 12:20:00,
2013-02-24 04:25:00,46.8,26.0,30.18,South,180,0.0,4.3,44,0.00,,,0.00,0.00,VWS V14.01,2013-02-24 12:25:00,
2013-02-24 04:30:00,47.3,26.0,30.18,SW,225,0.0,2.9,43,0.00,,,0.00,0.00,VWS V14.01,2013-02-24 12:30:00,
2013-02-24 04:35:00,47.3,26.0,30.18,NNW,338,2.5,3.6,43,0.00,,,0.00,0.00,VWS V14.01,2013-02-24 12:35:00,
2013-02-24 04:41:00,47.1,26.9,30.18,SW,225,0.0,3.6,45,0.00,,,0.00,0.00,VWS V14.01,2013-02-24 12:41:00,
2013-02-24 04:45:00,44.6,26.6,30.18,SSW,202,0.0,0.0,49,0.00,,,0.00,0.00,VWS V14.01,2013-02-24 12:45:00,
2013-02-24 04:46:00,46.8,26.0,30.15,SSW,202,2.7,2.9,44,0.00,,,0.00,0.00,VWS V14.01,2013-02-24 12:46:00,
2013-02-24 04:51:00,46.8,26.0,30.15,South,180,0.0,3.4,44,0.00,,,0.00,0.00,VWS V14.01,2013-02-24 12:51:00,
2013-02-24 04:56:00,46.8,26.0,30.15,NNE,22,0.0,3.4,44,0.00,,,0.00,0.00,VWS V14.01,2013-02-24 12:56:00,
2013-02-24 05:00:00,44.4,27.0,30.18,WNW,292,0.0,2.0,50,0.00,,,0.00,0.00,VWS V14.01,2013-02-24 13:00:00,
2013-02-24 05:01:00,46.8,25.5,30.18,South,180,0.0,3.4,43,0.00,,,0.00,0.00,VWS V14.01,2013-02-24 13:01:00,
2013-02-24 05:06:00,46.8,26.0,30.18,SSW,202,0.0,3.4,44,0.00,,,0.00,0.00,VWS V14.01,2013-02-24 13:06:00,
2013-02-24 05:11:00,46.4,26.2,30.18,SSW,202,1.3,3.4,45,0.00,,,0.00,0.00,VWS V14.01,2013-02-24 13:11:00,
2013-02-24 05:15:00,45.0,26.5,30.15,SSW,202,0.0,3.8,48,0.00,,,0.00,0.00,VWS V14.01,2013-02-24 13:15:00,
2013-02-24 05:16:00,46.2,26.1,30.18,West,270,0.0,2.2,45,0.00,,,0.00,0.00,VWS V14.01,2013-02-24 13:16:00,
2013-02-24 05:21:00,46.0,26.4,30.18,SW,225,0.0,2.2,46,0.00,,,0.00,0.00,VWS V14.01,2013-02-24 13:21:00,
2013-02-24 05:26:00,45.5,27.0,30.18,SW,225,0.0,2.2,48,0.00,,,0.00,0.00,VWS V14.01,2013-02-24 13:26:00,
2013-02-24 05:30:00,45.1,26.1,30.15,SW,225,0.0,2.7,47,0.00,,,0.00,0.00,VWS V14.01,2013-02-24 13:30:00,
2013-02-24 05:31:00,45.5,26.5,30.18,SSW,202,0.0,0.0,47,0.00,,,0.00,0.00,VWS V14.01,2013-02-24 13:31:00,
2013-02-24 05:36:00,45.1,26.6,30.18,SSW,202,0.0,0.0,48,0.00,,,0.00,0.00,VWS V14.01,2013-02-24 13:36:00,
2013-02-24 05:41:00,44.8,26.8,30.18,SSW,202,0.0,0.0,49,0.00,,,0.00,0.00,VWS V14.01,2013-02-24 13:41:00,
2013-02-24 05:45:00,47.3,26.0,30.18,SSE,158,2.5,8.1,43,0.00,,,0.00,0.00,VWS V14.01,2013-02-24 13:45:00,
2013-02-24 05:46:00,44.6,26.6,30.18,SSW,202,0.0,0.0,49,0.00,,,0.00,0.00,VWS V14.01,2013-02-24 13:46:00,
2013-02-24 05:51:00,44.8,26.8,30.18,SSW,202,0.0,0.0,49,0.00,,,0.00,0.00,VWS V14.01,2013-02-24 13:51:00,
2013-02-24 05:56:00,44.6,27.1,30.18,SSW,202,0.0,0.0,50,0.00,,,0.00,0.00,VWS V14.01,2013-02-24 13:56:00,
2013-02-24 06:00:00,46.4,26.8,30.18,South,180,0.0,3.4,46,0.00,,,0.00,0.00,VWS V14.01,2013-02-24 14:00:00,
2013-02-24 06:01:00,44.6,26.6,30.18,WNW,292,0.0,0.0,49,0.00,,,0.00,0.00,VWS V14.01,2013-02-24 14:01:00,
2013-02-24 06:06:00,45.0,26.5,30.18,South,180,0.0,3.8,48,0.00,,,0.00,0.00,VWS V14.01,2013-02-24 14:06:00,
2013-02-24 06:11:00,45.1,27.1,30.18,SSW,202,1.3,3.8,49,0.00,,,0.00,0.00,VWS V14.01,2013-02-24 14:11:00,
2013-02-24 06:15:00,46.6,26.4,30.18,SSW,202,0.0,3.8,45,0.00,,,0.00,0.00,VWS V14.01,2013-02-24 14:15:00,
2013-02-24 06:16:00,45.0,26.5,30.15,North,0,0.0,1.1,48,0.00,,,0.00,0.00,VWS V14.01,2013-02-24 14:16:00,
2013-02-24 06:21:00,45.1,26.6,30.15,North,0,1.6,2.7,48,0.00,,,0.00,0.00,VWS V14.01,2013-02-24 14:21:00,
2013-02-24 06:26:00,45.3,26.3,30.15,South,180,0.0,2.7,47,0.00,,,0.00,0.00,VWS V14.01,2013-02-24 14:26:00,
2013-02-24 06:30:00,46.8,28.6,30.18,SE,135,0.0,2.5,49,0.00,,,0.00,0.00,VWS V14.01,2013-02-24 14:30:00,
2013-02-24 06:31:00,45.1,26.1,30.15,SW,225,0.0,2.0,47,0.00,,,0.00,0.00,VWS V14.01,2013-02-24 14:31:00,
2013-02-24 06:36:00,45.3,25.8,30.15,SSE,158,0.0,2.9,46,0.00,,,0.00,0.00,VWS V14.01,2013-02-24 14:36:00,
2013-02-24 06:41:00,47.1,26.3,30.15,WNW,292,4.3,8.1,44,0.00,,,0.00,0.00,VWS V14.01,2013-02-24 14:41:00,
2013-02-24 06:45:00,47.1,27.9,30.18,South,180,0.0,2.7,47,0.00,,,0.00,0.00,VWS V14.01,2013-02-24 14:45:00,
2013-02-24 06:46:00,47.5,26.1,30.18,SSE,158,0.0,2.5,43,0.00,,,0.00,0.00,VWS V14.01,2013-02-24 14:46:00,
2013-02-24 06:51:00,47.1,26.9,30.18,SSW,202,0.0,3.4,45,0.00,,,0.00,0.00,VWS V14.01,2013-02-24 14:51:00,
2013-02-24 06:56:00,46.6,26.4,30.18,South,180,2.2,3.4,45,0.00,,,0.00,0.00,VWS V14.01,2013-02-24 14:56:00,
2013-02-24 07:00:00,47.8,28.1,30.21,NE,45,3.4,3.4,46,0.00,,,0.00,0.00,VWS V14.01,2013-02-24 15:00:00,
2013-02-24 07:01:00,46.2,26.6,30.18,South,180,1.6,2.2,46,0.00,,,0.00,0.00,VWS V14.01,2013-02-24 15:01:00,
2013-02-24 07:07:00,46.6,26.4,30.18,SSW,202,0.0,3.8,45,0.00,,,0.00,0.00,VWS V14.01,2013-02-24 15:07:00,
2013-02-24 07:12:00,46.6,26.4,30.18,SSW,202,2.7,3.8,45,0.00,,,0.00,0.00,VWS V14.01,2013-02-24 15:12:00,
2013-02-24 07:15:00,50.0,27.8,30.21,ESE,112,2.0,4.7,42,0.00,,,0.00,0.00,VWS V14.01,2013-02-24 15:15:00,
2013-02-24 07:17:00,46.6,26.9,30.18,SW,225,0.0,2.5,46,0.00,,,0.00,0.00,VWS V14.01,2013-02-24 15:17:00,
2013-02-24 07:22:00,46.4,27.3,30.18,South,180,0.0,2.5,47,0.00,,,0.00,0.00,VWS V14.01,2013-02-24 15:22:00,
2013-02-24 07:27:00,46.6,26.9,30.18,SE,135,1.6,2.5,46,0.00,,,0.00,0.00,VWS V14.01,2013-02-24 15:27:00,
2013-02-24 07:30:00,50.9,28.6,30.21,East,90,3.4,5.4,42,0.00,,,0.00,0.00,VWS V14.01,2013-02-24 15:30:00,
2013-02-24 07:32:00,46.6,27.5,30.18,SE,135,0.0,0.0,47,0.00,,,0.00,0.00,VWS V14.01,2013-02-24 15:32:00,
2013-02-24 07:37:00,46.9,28.3,30.18,South,180,0.0,2.7,48,0.00,,,0.00,0.00,VWS V14.01,2013-02-24 15:37:00,
2013-02-24 07:42:00,47.1,29.5,30.18,South,180,0.0,2.7,50,0.00,,,0.00,0.00,VWS V14.01,2013-02-24 15:42:00,
2013-02-24 07:45:00,53.2,28.9,30.21,NE,45,4.9,6.5,39,0.00,,,0.00,0.00,VWS V14.01,2013-02-24 15:45:00,
2013-02-24 07:47:00,47.1,27.4,30.18,South,180,0.0,0.9,46,0.00,,,0.00,0.00,VWS V14.01,2013-02-24 15:47:00,
2013-02-24 07:52:00,47.3,28.1,30.18,SSE,158,0.0,2.2,47,0.00,,,0.00,0.00,VWS V14.01,2013-02-24 15:52:00,
2013-02-24 07:57:00,47.7,27.4,30.21,South,180,0.0,3.4,45,0.00,,,0.00,0.00,VWS V14.01,2013-02-24 15:57:00,
2013-02-24 08:00:00,54.3,29.3,30.21,East,90,4.9,7.2,38,0.00,,,0.00,0.00,VWS V14.01,2013-02-24 16:00:00,
2013-02-24 08:02:00,48.6,27.1,30.21,NW,315,2.7,3.8,43,0.00,,,0.00,0.00,VWS V14.01,2013-02-24 16:02:00,
2013-02-24 08:07:00,49.3,28.3,30.21,SSE,158,0.0,3.8,44,0.00,,,0.00,0.00,VWS V14.01,2013-02-24 16:07:00,
2013-02-24 08:12:00,49.6,28.1,30.21,NE,45,2.7,4.3,43,0.00,,,0.00,0.00,VWS V14.01,2013-02-24 16:12:00,
2013-02-24 08:15:00,55.2,30.1,30.21,NE,45,4.0,6.7,38,0.00,,,0.00,0.00,VWS V14.01,2013-02-24 16:15:00,
2013-02-24 08:17:00,49.8,28.2,30.21,SE,135,0.0,2.9,43,0.00,,,0.00,0.00,VWS V14.01,2013-02-24 16:17:00,
2013-02-24 08:22:00,50.2,28.0,30.21,East,90,3.1,5.4,42,0.00,,,0.00,0.00,VWS V14.01,2013-02-24 16:22:00,
2013-02-24 08:27:00,50.5,28.3,30.21,North,0,3.6,5.4,42,0.00,,,0.00,0.00,VWS V14.01,2013-02-24 16:27:00,
2013-02-24 08:30:00,56.8,31.5,30.21,NNE,22,2.7,5.8,38,0.00,,,0.00,0.00,VWS V14.01,2013-02-24 16:30:00,
2013-02-24 08:32:00,51.3,28.4,30.21,East,90,3.4,4.3,41,0.00,,,0.00,0.00,VWS V14.01,2013-02-24 16:32:00,
2013-02-24 08:37:00,52.3,28.8,30.21,ENE,68,3.8,6.3,40,0.00,,,0.00,0.00,VWS V14.01,2013-02-24 16:37:00,
2013-02-24 08:42:00,53.1,29.4,30.21,East,90,2.5,6.3,40,0.00,,,0.00,0.00,VWS V14.01,2013-02-24 16:42:00,
2013-02-24 08:45:00,56.8,31.5,30.21,East,90,2.7,7.2,38,0.00,,,0.00,0.00,VWS V14.01,2013-02-24 16:45:00,
2013-02-24 08:47:00,53.1,28.8,30.21,SSE,158,1.3,4.9,39,0.00,,,0.00,0.00,VWS V14.01,2013-02-24 16:47:00,
2013-02-24 08:52:00,53.4,28.5,30.21,ENE,68,5.4,6.0,38,0.00,,,0.00,0.00,VWS V14.01,2013-02-24 16:52:00,
2013-02-24 08:57:00,54.0,29.0,30.21,NE,45,4.9,7.2,38,0.00,,,0.00,0.00,VWS V14.01,2013-02-24 16:57:00,
2013-02-24 09:00:00,57.0,31.7,30.21,East,90,3.6,7.2,38,0.00,,,0.00,0.00,VWS V14.01,2013-02-24 17:00:00,
2013-02-24 09:02:00,54.9,29.8,30.21,ENE,68,1.1,4.9,38,0.00,,,0.00,0.00,VWS V14.01,2013-02-24 17:02:00,
2013-02-24 09:07:00,55.2,30.1,30.21,East,90,2.7,6.5,38,0.00,,,0.00,0.00,VWS V14.01,2013-02-24 17:07:00,
2013-02-24 09:12:00,55.0,29.9,30.21,East,90,4.0,6.5,38,0.00,,,0.00,0.00,VWS V14.01,2013-02-24 17:12:00,
2013-02-24 09:15:00,57.6,31.5,30.21,ENE,68,2.9,6.5,37,0.00,,,0.00,0.00,VWS V14.01,2013-02-24 17:15:00,
2013-02-24 09:17:00,55.6,30.4,30.21,NE,45,4.0,4.0,38,0.00,,,0.00,0.00,VWS V14.01,2013-02-24 17:17:00,
2013-02-24 09:22:00,55.9,30.7,30.21,NNE,22,2.7,5.8,38,0.00,,,0.00,0.00,VWS V14.01,2013-02-24 17:22:00,
2013-02-24 09:27:00,56.7,31.4,30.21,East,90,2.7,5.8,38,0.00,,,0.00,0.00,VWS V14.01,2013-02-24 17:27:00,
2013-02-24 09:30:00,57.2,31.2,30.21,NNE,22,5.8,7.8,37,0.00,,,0.00,0.00,VWS V14.01,2013-02-24 17:30:00,
2013-02-24 09:32:00,57.0,31.7,30.21,NE,45,2.7,4.3,38,0.00,,,0.00,0.00,VWS V14.01,2013-02-24 17:32:00,
2013-02-24 09:37:00,57.0,31.7,30.21,East,90,3.8,7.2,38,0.00,,,0.00,0.00,VWS V14.01,2013-02-24 17:37:00,
2013-02-24 09:42:00,57.2,31.8,30.21,ENE,68,5.8,7.2,38,0.00,,,0.00,0.00,VWS V14.01,2013-02-24 17:42:00,
2013-02-24 09:45:00,59.0,32.8,30.21,NNE,22,3.1,7.4,37,0.00,,,0.00,0.00,VWS V14.01,2013-02-24 17:45:00,
2013-02-24 09:47:00,56.8,31.5,30.21,ENE,68,2.9,4.3,38,0.00,,,0.00,0.00,VWS V14.01,2013-02-24 17:47:00,
2013-02-24 09:52:00,56.8,31.5,30.21,NE,45,5.4,7.2,38,0.00,,,0.00,0.00,VWS V14.01,2013-02-24 17:52:00,
2013-02-24 09:57:00,57.0,31.7,30.21,NE,45,2.5,7.2,38,0.00,,,0.00,0.00,VWS V14.01,2013-02-24 17:57:00,
2013-02-24 10:00:00,58.6,31.8,30.21,NE,45,4.0,7.2,36,0.00,,,0.00,0.00,VWS V14.01,2013-02-24 18:00:00,
2013-02-24 10:02:00,57.0,31.7,30.21,NNE,22,3.4,5.8,38,0.00,,,0.00,0.00,VWS V14.01,2013-02-24 18:02:00,
2013-02-24 10:07:00,56.8,30.9,30.21,NE,45,2.2,5.8,37,0.00,,,0.00,0.00,VWS V14.01,2013-02-24 18:07:00,
2013-02-24 10:12:00,57.6,31.5,30.21,NNE,22,3.8,6.5,37,0.00,,,0.00,0.00,VWS V14.01,2013-02-24 18:12:00,
2013-02-24 10:15:00,59.2,30.9,30.21,East,90,3.8,7.2,34,0.00,,,0.00,0.00,VWS V14.01,2013-02-24 18:15:00,
2013-02-24 10:17:00,57.2,31.2,30.21,NNE,22,5.6,5.6,37,0.00,,,0.00,0.00,VWS V14.01,2013-02-24 18:17:00,
2013-02-24 10:22:00,57.6,31.5,30.21,East,90,3.1,6.0,37,0.00,,,0.00,0.00,VWS V14.01,2013-02-24 18:22:00,
2013-02-24 10:27:00,57.2,31.2,30.21,NE,45,3.6,7.8,37,0.00,,,0.00,0.00,VWS V14.01,2013-02-24 18:27:00,
2013-02-24 10:30:00,59.2,30.1,30.21,ENE,68,10.3,10.3,33,0.00,,,0.00,0.00,VWS V14.01,2013-02-24 18:30:00,
2013-02-24 10:32:00,57.2,31.2,30.21,East,90,4.3,6.0,37,0.00,,,0.00,0.00,VWS V14.01,2013-02-24 18:32:00,
2013-02-24 10:38:00,57.7,31.7,30.21,NE,45,7.2,7.4,37,0.00,,,0.00,0.00,VWS V14.01,2013-02-24 18:38:00,
2013-02-24 10:43:00,58.8,32.6,30.21,NE,45,7.2,7.4,37,0.00,,,0.00,0.00,VWS V14.01,2013-02-24 18:43:00,
2013-02-24 10:45:00,60.6,32.1,30.21,North,0,2.7,10.3,34,0.00,,,0.00,0.00,VWS V14.01,2013-02-24 18:45:00,
2013-02-24 10:48:00,58.8,32.6,30.21,NE,45,3.1,3.4,37,0.00,,,0.00,0.00,VWS V14.01,2013-02-24 18:48:00,
2013-02-24 10:53:00,58.5,30.9,30.21,NE,45,3.6,5.6,35,0.00,,,0.00,0.00,VWS V14.01,2013-02-24 18:53:00,
2013-02-24 10:58:00,58.8,32.6,30.21,NNE,22,3.6,5.6,37,0.00,,,0.00,0.00,VWS V14.01,2013-02-24 18:58:00,
2013-02-24 11:00:00,60.8,28.4,30.21,NE,45,4.9,8.1,29,0.00,,,0.00,0.00,VWS V14.01,2013-02-24 19:00:00,
2013-02-24 11:03:00,58.8,31.2,30.21,NNE,22,6.5,6.5,35,0.00,,,0.00,0.00,VWS V14.01,2013-02-24 19:03:00,
2013-02-24 11:08:00,58.8,30.5,30.21,NNE,22,3.8,7.2,34,0.00,,,0.00,0.00,VWS V14.01,2013-02-24 19:08:00,
2013-02-24 11:13:00,59.2,30.9,30.21,NE,45,4.0,7.2,34,0.00,,,0.00,0.00,VWS V14.01,2013-02-24 19:13:00,
2013-02-24 11:15:00,61.0,28.5,30.18,NE,45,2.9,6.3,29,0.00,,,0.00,0.00,VWS V14.01,2013-02-24 19:15:00,
2013-02-24 11:18:00,59.0,30.7,30.21,NNE,22,3.1,6.0,34,0.00,,,0.00,0.00,VWS V14.01,2013-02-24 19:18:00,
2013-02-24 11:23:00,59.2,30.9,30.21,North,0,6.3,7.8,34,0.00,,,0.00,0.00,VWS V14.01,2013-02-24 19:23:00,
2013-02-24 11:28:00,59.7,32.7,30.21,NE,45,7.8,8.1,36,0.00,,,0.00,0.00,VWS V14.01,2013-02-24 19:28:00,
2013-02-24 11:30:00,61.7,29.1,30.18,NNE,22,3.4,5.6,29,0.00,,,0.00,0.00,VWS V14.01,2013-02-24 19:30:00,
2013-02-24 11:33:00,59.9,31.5,30.21,East,90,7.2,10.3,34,0.00,,,0.00,0.00,VWS V14.01,2013-02-24 19:33:00,
2013-02-24 11:38:00,59.9,30.8,30.21,ENE,68,6.3,10.3,33,0.00,,,0.00,0.00,VWS V14.01,2013-02-24 19:38:00,
2013-02-24 11:43:00,60.6,32.1,30.21,East,90,2.0,10.3,34,0.00,,,0.00,0.00,VWS V14.01,2013-02-24 19:43:00,
2013-02-24 11:45:00,63.5,29.8,30.18,East,90,1.6,4.7,28,0.00,,,0.00,0.00,VWS V14.01,2013-02-24 19:45:00,
2013-02-24 11:48:00,60.6,29.8,30.21,NE,45,4.7,8.1,31,0.00,,,0.00,0.00,VWS V14.01,2013-02-24 19:48:00,
2013-02-24 11:53:00,60.4,29.7,30.21,East,90,4.0,8.1,31,0.00,,,0.00,0.00,VWS V14.01,2013-02-24 19:53:00,
2013-02-24 11:58:00,60.8,29.2,30.21,East,90,2.7,8.1,30,0.00,,,0.00,0.00,VWS V14.01,2013-02-24 19:58:00,
2013-02-24 12:00:00,62.2,24.0,30.18,ENE,68,3.6,4.3,23,0.00,,,0.00,0.00,VWS V14.01,2013-02-24 20:00:00,
2013-02-24 12:03:00,60.8,29.2,30.21,North,0,0.0,6.0,30,0.00,,,0.00,0.00,VWS V14.01,2013-02-24 20:03:00,
2013-02-24 12:08:00,61.2,29.5,30.21,NNW,338,4.9,6.0,30,0.00,,,0.00,0.00,VWS V14.01,2013-02-24 20:08:00,
2013-02-24 12:13:00,61.0,28.5,30.18,ESE,112,3.1,6.3,29,0.00,,,0.00,0.00,VWS V14.01,2013-02-24 20:13:00,
2013-02-24 12:15:00,63.1,27.7,30.15,SSE,158,2.0,4.9,26,0.00,,,0.00,0.00,VWS V14.01,2013-02-24 20:15:00,
2013-02-24 12:18:00,61.0,28.5,30.18,NNE,22,4.0,4.9,29,0.00,,,0.00,0.00,VWS V14.01,2013-02-24 20:18:00,
2013-02-24 12:23:00,61.9,30.9,30.18,NE,45,3.4,4.9,31,0.00,,,0.00,0.00,VWS V14.01,2013-02-24 20:23:00,
2013-02-24 12:28:00,61.9,29.3,30.18,NE,45,2.7,5.6,29,0.00,,,0.00,0.00,VWS V14.01,2013-02-24 20:28:00,
2013-02-24 12:30:00,59.2,34.3,30.15,South,180,3.4,10.3,39,0.00,,,0.00,0.00,VWS V14.01,2013-02-24 20:30:00,
2013-02-24 12:33:00,62.6,29.1,30.18,NE,45,4.0,4.0,28,0.00,,,0.00,0.00,VWS V14.01,2013-02-24 20:33:00,
2013-02-24 12:38:00,63.5,30.7,30.18,North,0,3.8,4.3,29,0.00,,,0.00,0.00,VWS V14.01,2013-02-24 20:38:00,
2013-02-24 12:44:00,63.7,30.0,30.18,NNE,22,3.8,4.3,28,0.00,,,0.00,0.00,VWS V14.01,2013-02-24 20:44:00,
2013-02-24 12:45:00,59.0,33.5,30.15,SSE,158,6.0,10.5,38,0.00,,,0.00,0.00,VWS V14.01,2013-02-24 20:45:00,
2013-02-24 12:49:00,62.8,27.4,30.18,WNW,292,2.2,4.3,26,0.00,,,0.00,0.00,VWS V14.01,2013-02-24 20:49:00,
2013-02-24 12:54:00,62.8,27.4,30.18,NNE,22,3.6,4.3,26,0.00,,,0.00,0.00,VWS V14.01,2013-02-24 20:54:00,
2013-02-24 12:59:00,62.6,27.3,30.18,ENE,68,3.8,4.3,26,0.00,,,0.00,0.00,VWS V14.01,2013-02-24 20:59:00,
2013-02-24 13:00:00,58.8,33.9,30.15,SSW,202,7.6,12.8,39,0.00,,,0.00,0.00,VWS V14.01,2013-02-24 21:00:00,
2013-02-24 13:04:00,62.4,22.0,30.18,ESE,112,1.6,4.0,21,0.00,,,0.00,0.00,VWS V14.01,2013-02-24 21:04:00,
2013-02-24 13:09:00,62.8,27.4,30.18,East,90,2.0,4.0,26,0.00,,,0.00,0.00,VWS V14.01,2013-02-24 21:09:00,
2013-02-24 13:14:00,63.0,27.6,30.15,WNW,292,1.6,4.9,26,0.00,,,0.00,0.00,VWS V14.01,2013-02-24 21:14:00,
2013-02-24 13:15:00,59.4,33.1,30.15,SW,225,5.8,10.3,37,0.00,,,0.00,0.00,VWS V14.01,2013-02-24 21:15:00,
2013-02-24 13:19:00,62.8,28.3,30.15,East,90,4.3,4.3,27,0.00,,,0.00,0.00,VWS V14.01,2013-02-24 21:19:00,
2013-02-24 13:24:00,60.1,34.4,30.15,SSE,158,3.6,8.7,38,0.00,,,0.00,0.00,VWS V14.01,2013-02-24 21:24:00,
2013-02-24 13:29:00,59.0,34.1,30.15,SSE,158,7.6,10.3,39,0.00,,,0.00,0.00,VWS V14.01,2013-02-24 21:29:00,
2013-02-24 13:30:00,60.4,34.7,30.15,SW,225,4.3,7.2,38,0.00,,,0.00,0.00,VWS V14.01,2013-02-24 21:30:00,
2013-02-24 13:34:00,58.8,33.9,30.15,SSE,158,5.4,6.3,39,0.00,,,0.00,0.00,VWS V14.01,2013-02-24 21:34:00,
2013-02-24 13:39:00,59.4,34.4,30.15,SSE,158,2.7,10.5,39,0.00,,,0.00,0.00,VWS V14.01,2013-02-24 21:39:00,
2013-02-24 13:44:00,59.2,33.6,30.15,SSW,202,7.8,10.5,38,0.00,,,0.00,0.00,VWS V14.01,2013-02-24 21:44:00,
2013-02-24 13:45:00,60.1,34.4,30.15,SE,135,5.6,7.8,38,0.00,,,0.00,0.00,VWS V14.01,2013-02-24 21:45:00,
2013-02-24 13:49:00,58.8,33.9,30.15,South,180,5.6,10.3,39,0.00,,,0.00,0.00,VWS V14.01,2013-02-24 21:49:00,
2013-02-24 13:54:00,58.8,33.9,30.15,South,180,6.3,10.3,39,0.00,,,0.00,0.00,VWS V14.01,2013-02-24 21:54:00,
2013-02-24 13:59:00,58.6,33.8,30.15,SSE,158,4.3,12.8,39,0.00,,,0.00,0.00,VWS V14.01,2013-02-24 21:59:00,
2013-02-24 14:00:00,60.1,33.8,30.15,SSW,202,3.6,7.4,37,0.00,,,0.00,0.00,VWS V14.01,2013-02-24 22:00:00,
2013-02-24 14:04:00,58.6,33.1,30.15,SW,225,9.6,10.3,38,0.00,,,0.00,0.00,VWS V14.01,2013-02-24 22:04:00,
2013-02-24 14:09:00,58.8,33.3,30.15,SW,225,5.8,10.3,38,0.00,,,0.00,0.00,VWS V14.01,2013-02-24 22:09:00,
2013-02-24 14:14:00,59.2,33.0,30.15,SW,225,2.0,10.3,37,0.00,,,0.00,0.00,VWS V14.01,2013-02-24 22:14:00,
2013-02-24 14:15:00,60.6,34.2,30.12,South,180,2.2,6.5,37,0.00,,,0.00,0.00,VWS V14.01,2013-02-24 22:15:00,
2013-02-24 14:19:00,59.7,33.4,30.15,SE,135,4.9,7.2,37,0.00,,,0.00,0.00,VWS V14.01,2013-02-24 22:19:00,
2013-02-24 14:24:00,59.7,33.4,30.15,SSW,202,2.9,7.2,37,0.00,,,0.00,0.00,VWS V14.01,2013-02-24 22:24:00,
2013-02-24 14:29:00,60.1,33.8,30.15,West,270,2.0,7.2,37,0.00,,,0.00,0.00,VWS V14.01,2013-02-24 22:29:00,
2013-02-24 14:30:00,59.9,33.6,30.15,WSW,248,4.9,7.8,37,0.00,,,0.00,0.00,VWS V14.01,2013-02-24 22:30:00,
2013-02-24 14:34:00,60.1,33.8,30.15,SW,225,6.3,7.8,37,0.00,,,0.00,0.00,VWS V14.01,2013-02-24 22:34:00,
2013-02-24 14:39:00,60.3,34.6,30.15,South,180,4.3,7.8,38,0.00,,,0.00,0.00,VWS V14.01,2013-02-24 22:39:00,
2013-02-24 14:44:00,60.1,34.4,30.15,South,180,5.6,7.8,38,0.00,,,0.00,0.00,VWS V14.01,2013-02-24 22:44:00,
2013-02-24 14:45:00,58.6,35.0,30.12,SSE,158,5.6,7.4,41,0.00,,,0.00,0.00,VWS V14.01,2013-02-24 22:45:00,
2013-02-24 14:49:00,60.3,33.9,30.15,SSW,202,3.1,5.8,37,0.00,,,0.00,0.00,VWS V14.01,2013-02-24 22:49:00,
2013-02-24 14:54:00,59.9,33.6,30.15,WSW,248,2.7,7.4,37,0.00,,,0.00,0.00,VWS V14.01,2013-02-24 22:54:00,
2013-02-24 14:59:00,60.1,33.8,30.15,SSE,158,3.6,7.4,37,0.00,,,0.00,0.00,VWS V14.01,2013-02-24 22:59:00,
2013-02-24 15:00:00,58.1,35.7,30.12,SSW,202,3.8,8.7,43,0.00,,,0.00,0.00,VWS V14.01,2013-02-24 23:00:00,
2013-02-24 15:04:00,60.1,33.8,30.15,SSW,202,2.0,6.5,37,0.00,,,0.00,0.00,VWS V14.01,2013-02-24 23:04:00,
2013-02-24 15:09:00,60.3,33.9,30.15,West,270,3.4,6.5,37,0.00,,,0.00,0.00,VWS V14.01,2013-02-24 23:09:00,
2013-02-24 15:14:00,60.6,34.2,30.12,South,180,2.5,6.5,37,0.00,,,0.00,0.00,VWS V14.01,2013-02-24 23:14:00,
2013-02-24 15:15:00,57.7,38.7,30.12,SSW,202,4.0,5.8,49,0.00,,,0.00,0.00,VWS V14.01,2013-02-24 23:15:00,
2013-02-24 15:19:00,60.3,33.2,30.12,SSW,202,4.9,7.8,36,0.00,,,0.00,0.00,VWS V14.01,2013-02-24 23:19:00,
2013-02-24 15:24:00,60.3,33.9,30.12,South,180,4.0,7.8,37,0.00,,,0.00,0.00,VWS V14.01,2013-02-24 23:24:00,
2013-02-24 15:29:00,60.1,33.8,30.15,SSE,158,4.3,7.8,37,0.00,,,0.00,0.00,VWS V14.01,2013-02-24 23:29:00,
2013-02-24 15:30:00,57.2,38.2,30.12,SW,225,2.9,8.1,49,0.00,,,0.00,0.00,VWS V14.01,2013-02-24 23:30:00,
2013-02-24 15:34:00,59.5,33.9,30.15,SW,225,4.7,6.7,38,0.00,,,0.00,0.00,VWS V14.01,2013-02-24 23:34:00,
2013-02-24 15:39:00,59.2,34.3,30.15,South,180,2.7,7.4,39,0.00,,,0.00,0.00,VWS V14.01,2013-02-24 23:39:00,
2013-02-24 15:44:00,58.8,34.6,30.12,SSE,158,3.8,7.4,40,0.00,,,0.00,0.00,VWS V14.01,2013-02-24 23:44:00,
2013-02-24 15:45:00,57.2,38.2,30.12,SW,225,3.4,6.7,49,0.00,,,0.00,0.00,VWS V14.01,2013-02-24 23:45:00,
2013-02-24 15:49:00,58.5,34.9,30.12,South,180,5.4,8.7,41,0.00,,,0.00,0.00,VWS V14.01,2013-02-24 23:49:00,
2013-02-24 15:54:00,58.5,35.5,30.12,SSW,202,3.6,8.7,42,0.00,,,0.00,0.00,VWS V14.01,2013-02-24 23:54:00,
2013-02-24 15:59:00,58.3,35.9,30.12,West,270,4.7,8.7,43,0.00,,,0.00,0.00,VWS V14.01,2013-02-24 23:59:00,
2013-02-24 16:00:00,56.8,38.4,30.12,South,180,5.4,7.4,50,0.00,,,0.00,0.00,VWS V14.01,2013-02-25 00:00:00,
2013-02-24 16:04:00,58.1,36.9,30.12,SSW,202,3.6,5.8,45,0.00,,,0.00,0.00,VWS V14.01,2013-02-25 00:04:00,
2013-02-24 16:09:00,57.9,37.8,30.12,SSW,202,4.3,5.8,47,0.00,,,0.00,0.00,VWS V14.01,2013-02-25 00:09:00,
2013-02-24 16:14:00,57.9,38.9,30.12,SSW,202,5.4,5.8,49,0.00,,,0.00,0.00,VWS V14.01,2013-02-25 00:14:00,
2013-02-24 16:15:00,55.8,41.2,30.12,SSE,158,3.6,7.2,58,0.00,,,0.00,0.00,VWS V14.01,2013-02-25 00:15:00,
2013-02-24 16:19:00,57.6,38.6,30.12,WSW,248,8.1,8.1,49,0.00,,,0.00,0.00,VWS V14.01,2013-02-25 00:19:00,
2013-02-24 16:24:00,57.4,38.4,30.12,WSW,248,3.1,8.1,49,0.00,,,0.00,0.00,VWS V14.01,2013-02-25 00:24:00,
2013-02-24 16:29:00,57.2,38.2,30.12,SSW,202,5.8,8.1,49,0.00,,,0.00,0.00,VWS V14.01,2013-02-25 00:29:00,
2013-02-24 16:30:00,55.4,42.2,30.12,SW,225,5.6,8.7,61,0.00,,,0.00,0.00,VWS V14.01,2013-02-25 00:30:00,
2013-02-24 16:34:00,57.2,38.2,30.12,SSE,158,3.4,6.7,49,0.00,,,0.00,0.00,VWS V14.01,2013-02-25 00:34:00,
2013-02-24 16:39:00,57.2,38.2,30.12,SSE,158,2.7,6.7,49,0.00,,,0.00,0.00,VWS V14.01,2013-02-25 00:39:00,
2013-02-24 16:44:00,57.0,38.1,30.12,SW,225,3.6,6.7,49,0.00,,,0.00,0.00,VWS V14.01,2013-02-25 00:44:00,
2013-02-24 16:45:00,55.9,38.1,30.12,West,270,4.9,7.8,51,0.00,,,0.00,0.00,VWS V14.01,2013-02-25 00:45:00,
2013-02-24 16:49:00,57.2,37.7,30.12,WSW,248,0.0,7.4,48,0.00,,,0.00,0.00,VWS V14.01,2013-02-25 00:49:00,
2013-02-24 16:54:00,56.8,37.9,30.12,SSW,202,2.7,7.4,49,0.00,,,0.00,0.00,VWS V14.01,2013-02-25 00:54:00,
2013-02-24 16:59:00,56.8,37.9,30.12,SSW,202,3.1,7.4,49,0.00,,,0.00,0.00,VWS V14.01,2013-02-25 00:59:00,
2013-02-24 17:00:00,55.4,37.1,30.12,SSW,202,2.9,6.0,50,0.00,,,0.00,0.00,VWS V14.01,2013-02-25 01:00:00,
2013-02-24 17:04:00,56.7,39.2,30.12,SSW,202,4.7,7.2,52,0.00,,,0.00,0.00,VWS V14.01,2013-02-25 01:04:00,
2013-02-24 17:10:00,56.3,39.9,30.12,South,180,3.6,7.2,54,0.00,,,0.00,0.00,VWS V14.01,2013-02-25 01:10:00,
2013-02-24 17:15:00,55.8,41.2,30.12,SSE,158,3.6,7.2,58,0.00,,,0.00,0.00,VWS V14.01,2013-02-25 01:15:00,
2013-02-24 17:20:00,55.6,42.4,30.12,SSW,202,4.7,7.6,61,0.00,,,0.00,0.00,VWS V14.01,2013-02-25 01:20:00,
2013-02-24 17:25:00,55.4,42.2,30.12,SSW,202,3.8,8.7,61,0.00,,,0.00,0.00,VWS V14.01,2013-02-25 01:25:00,
2013-02-24 17:30:00,55.4,42.2,30.12,SW,225,5.6,8.7,61,0.00,,,0.00,0.00,VWS V14.01,2013-02-25 01:30:00,
2013-02-24 17:35:00,55.2,42.4,30.12,South,180,6.7,7.8,62,0.00,,,0.00,0.00,VWS V14.01,2013-02-25 01:35:00,
2013-02-24 17:40:00,55.4,39.5,30.12,WSW,248,5.4,7.8,55,0.00,,,0.00,0.00,VWS V14.01,2013-02-25 01:40:00,
2013-02-24 17:45:00,55.9,38.1,30.12,West,270,4.9,4.9,51,0.00,,,0.00,0.00,VWS V14.01,2013-02-25 01:45:00,
2013-02-24 17:50:00,55.6,37.8,30.12,SSW,202,2.9,5.8,51,0.00,,,0.00,0.00,VWS V14.01,2013-02-25 01:50:00,
2013-02-24 17:55:00,55.6,36.7,30.12,South,180,2.7,5.8,49,0.00,,,0.00,0.00,VWS V14.01,2013-02-25 01:55:00,
2013-02-24 18:00:00,55.6,36.7,30.12,South,180,3.1,3.1,49,0.00,,,0.00,0.00,VWS V14.01,2013-02-25 02:00:00,
2013-02-24 18:05:00,55.0,37.3,30.12,SSW,202,4.9,6.3,51,0.00,,,0.00,0.00,VWS V14.01,2013-02-25 02:05:00,
2013-02-24 18:10:00,54.5,36.8,30.12,SSE,158,4.3,7.4,51,0.00,,,0.00,0.00,VWS V14.01,2013-02-25 02:10:00,
2013-02-24 18:15:00,54.3,36.6,30.12,SSW,202,6.7,6.7,51,0.00,,,0.00,0.00,VWS V14.01,2013-02-25 02:15:00,
2013-02-24 18:20:00,54.3,37.1,30.12,SSW,202,4.3,7.4,52,0.00,,,0.00,0.00,VWS V14.01,2013-02-25 02:20:00,
2013-02-24 18:25:00,53.8,37.1,30.12,SW,225,2.7,8.1,53,0.00,,,0.00,0.00,VWS V14.01,2013-02-25 02:25:00,
2013-02-24 18:30:00,53.1,37.8,30.12,SSW,202,3.1,3.1,56,0.00,,,0.00,0.00,VWS V14.01,2013-02-25 02:30:00,
2013-02-24 18:35:00,53.4,38.1,30.12,South,180,3.6,6.0,56,0.00,,,0.00,0.00,VWS V14.01,2013-02-25 02:35:00,
2013-02-24 18:40:00,52.7,37.9,30.12,South,180,0.0,6.0,57,0.00,,,0.00,0.00,VWS V14.01,2013-02-25 02:40:00,
2013-02-24 18:45:00,51.6,37.8,30.12,SSW,202,0.0,0.0,59,0.00,,,0.00,0.00,VWS V14.01,2013-02-25 02:45:00,
2013-02-24 18:50:00,51.6,37.8,30.12,SSW,202,2.7,2.9,59,0.00,,,0.00,0.00,VWS V14.01,2013-02-25 02:50:00,
2013-02-24 18:55:00,51.6,39.0,30.12,SSW,202,2.7,3.1,62,0.00,,,0.00,0.00,VWS V14.01,2013-02-25 02:55:00,
2013-02-24 19:00:00,51.4,39.3,30.12,SSW,202,2.7,2.7,63,0.00,,,0.00,0.00,VWS V14.01,2013-02-25 03:00:00,
2013-02-24 19:05:00,51.1,39.3,30.12,SSW,202,0.0,2.7,64,0.00,,,0.00,0.00,VWS V14.01,2013-02-25 03:05:00,
2013-02-24 19:10:00,51.1,39.3,30.12,SSW,202,2.7,4.3,64,0.00,,,0.00,0.00,VWS V14.01,2013-02-25 03:10:00,
2013-02-24 19:15:00,50.9,39.2,30.12,SSW,202,2.0,2.2,64,0.00,,,0.00,0.00,VWS V14.01,2013-02-25 03:15:00,
2013-02-24 19:20:00,50.5,38.4,30.12,SW,225,0.0,2.5,63,0.00,,,0.00,0.00,VWS V14.01,2013-02-25 03:20:00,
2013-02-24 19:25:00,50.2,38.5,30.12,SW,225,2.0,2.5,64,0.00,,,0.00,0.00,VWS V14.01,2013-02-25 03:25:00,
2013-02-24 19:30:00,50.2,38.5,30.12,SSW,202,0.0,0.0,64,0.00,,,0.00,0.00,VWS V14.01,2013-02-25 03:30:00,
2013-02-24 19:35:00,49.8,38.5,30.12,SSW,202,0.0,0.0,65,0.00,,,0.00,0.00,VWS V14.01,2013-02-25 03:35:00,
2013-02-24 19:40:00,49.3,38.8,30.12,SSW,202,0.0,2.0,67,0.00,,,0.00,0.00,VWS V14.01,2013-02-25 03:40:00,
2013-02-24 19:45:00,49.1,38.6,30.12,SSW,202,0.0,0.0,67,0.00,,,0.00,0.00,VWS V14.01,2013-02-25 03:45:00,
2013-02-24 19:50:00,48.7,39.0,30.12,SSW,202,0.0,2.0,69,0.00,,,0.00,0.00,VWS V14.01,2013-02-25 03:50:00,
2013-02-24 19:55:00,48.7,39.8,30.12,SE,135,0.0,2.5,71,0.00,,,0.00,0.00,VWS V14.01,2013-02-25 03:55:00,
2013-02-24 20:00:00,48.9,41.0,30.15,SSW,202,0.9,0.9,74,0.00,,,0.00,0.00,VWS V14.01,2013-02-25 04:00:00,
2013-02-24 20:05:00,48.9,40.3,30.15,SW,225,2.7,2.7,72,0.00,,,0.00,0.00,VWS V14.01,2013-02-25 04:05:00,
2013-02-24 20:10:00,49.8,41.2,30.15,SSW,202,3.6,4.0,72,0.00,,,0.00,0.00,VWS V14.01,2013-02-25 04:10:00,
2013-02-24 20:15:00,50.2,41.2,30.12,SSW,202,1.3,2.5,71,0.00,,,0.00,0.00,VWS V14.01,2013-02-25 04:15:00,
2013-02-24 20:21:00,50.4,41.0,30.12,SSW,202,0.0,4.3,70,0.00,,,0.00,0.00,VWS V14.01,2013-02-25 04:21:00,
2013-02-24 20:26:00,50.4,41.3,30.12,South,180,2.9,4.3,71,0.00,,,0.00,0.00,VWS V14.01,2013-02-25 04:26:00,
2013-02-24 20:30:00,49.8,41.5,30.12,SW,225,4.0,9.6,73,0.00,,,0.00,0.00,VWS V14.01,2013-02-25 04:30:00,
2013-02-24 20:31:00,50.4,41.3,30.12,SW,225,2.5,3.6,71,0.00,,,0.00,0.00,VWS V14.01,2013-02-25 04:31:00,
2013-02-24 20:36:00,50.4,41.3,30.12,SSW,202,5.8,6.3,71,0.00,,,0.00,0.00,VWS V14.01,2013-02-25 04:36:00,
2013-02-24 20:41:00,50.2,41.5,30.12,SE,135,0.0,6.3,72,0.00,,,0.00,0.00,VWS V14.01,2013-02-25 04:41:00,
2013-02-24 20:45:00,49.3,43.4,30.15,SSW,202,4.7,8.7,80,0.00,,,0.00,0.00,VWS V14.01,2013-02-25 04:45:00,
2013-02-24 20:46:00,49.8,41.5,30.15,SSW,202,2.7,3.4,73,0.00,,,0.00,0.00,VWS V14.01,2013-02-25 04:46:00,
2013-02-24 20:51:00,49.6,41.3,30.15,SSW,202,2.9,4.0,73,0.00,,,0.00,0.00,VWS V14.01,2013-02-25 04:51:00,
2013-02-24 20:56:00,49.6,41.3,30.15,SE,135,3.8,6.5,73,0.00,,,0.00,0.00,VWS V14.01,2013-02-25 04:56:00,
2013-02-24 21:00:00,49.8,41.2,30.12,South,180,2.5,6.5,72,0.00,,,0.00,0.00,VWS V14.01,2013-02-25 05:00:00,
2013-02-24 21:01:00,50.2,40.8,30.12,SSE,158,3.6,7.6,70,0.00,,,0.00,0.00,VWS V14.01,2013-02-25 05:01:00,
2013-02-24 21:02:00,50.2,40.8,30.12,South,180,2.7,7.6,70,0.00,,,0.00,0.00,VWS V14.01,2013-02-25 05:02:00,
2013-02-24 21:07:00,50.2,40.0,30.12,South,180,5.8,7.6,68,0.00,,,0.00,0.00,VWS V14.01,2013-02-25 05:07:00,
2013-02-24 21:12:00,50.2,38.1,30.12,South,180,4.3,7.6,63,0.00,,,0.00,0.00,VWS V14.01,2013-02-25 05:12:00,
2013-02-24 21:15:00,48.4,46.5,30.21,ESE,112,8.1,12.1,93,0.00,,,0.00,0.00,VWS V14.01,2013-02-25 05:15:00,
2013-02-24 21:17:00,50.4,39.1,30.12,SW,225,4.5,6.3,65,0.00,,,0.00,0.00,VWS V14.01,2013-02-25 05:17:00,
2013-02-24 21:22:00,50.2,40.0,30.12,SSW,202,4.3,9.6,68,0.00,,,0.00,0.00,VWS V14.01,2013-02-25 05:22:00,
2013-02-24 21:27:00,50.0,40.6,30.12,SSW,202,2.9,9.6,70,0.00,,,0.00,0.00,VWS V14.01,2013-02-25 05:27:00,
2013-02-24 21:30:00,48.6,46.9,30.21,SW,225,2.7,8.7,94,0.00,,,0.00,0.00,VWS V14.01,2013-02-25 05:30:00,
2013-02-24 21:32:00,49.8,41.5,30.12,South,180,5.4,7.4,73,0.00,,,0.00,0.00,VWS V14.01,2013-02-25 05:32:00,
2013-02-24 21:37:00,49.6,41.3,30.12,South,180,7.4,8.7,73,0.00,,,0.00,0.00,VWS V14.01,2013-02-25 05:37:00,
2013-02-24 21:42:00,49.5,42.6,30.15,SSW,202,3.1,8.7,77,0.00,,,0.00,0.00,VWS V14.01,2013-02-25 05:42:00,
2013-02-24 21:45:00,48.4,47.0,30.21,SSW,202,3.6,8.7,95,0.00,,,0.00,0.00,VWS V14.01,2013-02-25 05:45:00,
2013-02-24 21:47:00,49.3,44.0,30.15,SW,225,6.3,6.3,82,0.00,,,0.00,0.00,VWS V14.01,2013-02-25 05:47:00,
2013-02-24 21:52:00,48.9,45.2,30.15,WSW,248,9.8,10.1,87,0.00,,,0.00,0.00,VWS V14.01,2013-02-25 05:52:00,
2013-02-24 21:57:00,48.7,45.0,30.18,SSW,202,5.6,10.1,87,0.00,,,0.00,0.00,VWS V14.01,2013-02-25 05:57:00,
2013-02-24 22:00:00,48.2,47.4,30.21,South,180,4.5,11.0,97,0.00,,,0.00,0.00,VWS V14.01,2013-02-25 06:00:00,
2013-02-24 22:02:00,48.7,45.3,30.18,SSW,202,2.7,6.5,88,0.00,,,0.00,0.00,VWS V14.01,2013-02-25 06:02:00,
2013-02-24 22:07:00,48.6,45.8,30.18,SSW,202,7.8,8.7,90,0.00,,,0.00,0.00,VWS V14.01,2013-02-25 06:07:00,
2013-02-24 22:12:00,48.4,46.5,30.21,South,180,4.0,12.1,93,0.00,,,0.00,0.00,VWS V14.01,2013-02-25 06:12:00,
2013-02-24 22:15:00,48.4,47.6,30.18,ESE,112,6.7,10.5,97,0.00,,,0.00,0.00,VWS V14.01,2013-02-25 06:15:00,
2013-02-24 22:18:00,48.7,47.1,30.21,ESE,112,6.0,8.5,94,0.00,,,0.00,0.00,VWS V14.01,2013-02-25 06:18:00,
2013-02-24 22:23:00,48.7,47.1,30.21,SSE,158,2.9,8.7,94,0.00,,,0.00,0.00,VWS V14.01,2013-02-25 06:23:00,
2013-02-24 22:28:00,48.6,46.9,30.21,SW,225,7.8,8.7,94,0.00,,,0.00,0.00,VWS V14.01,2013-02-25 06:28:00,
2013-02-24 22:30:00,48.4,47.3,30.18,East,90,6.0,10.5,96,0.00,,,0.00,0.00,VWS V14.01,2013-02-25 06:30:00,
2013-02-24 22:33:00,48.6,46.9,30.21,SSE,158,4.0,8.7,94,0.00,,,0.00,0.00,VWS V14.01,2013-02-25 06:33:00,
2013-02-24 22:38:00,48.6,46.9,30.21,SSE,158,1.1,8.7,94,0.00,,,0.00,0.00,VWS V14.01,2013-02-25 06:38:00,
2013-02-24 22:43:00,48.4,47.0,30.21,SSW,202,8.1,8.7,95,0.00,,,0.00,0.00,VWS V14.01,2013-02-25 06:43:00,
2013-02-24 22:45:00,48.2,47.4,30.18,South,180,2.9,8.5,97,0.00,,,0.00,0.00,VWS V14.01,2013-02-25 06:45:00,
2013-02-24 22:48:00,48.2,47.1,30.21,SSW,202,5.8,7.6,96,0.00,,,0.00,0.00,VWS V14.01,2013-02-25 06:48:00,
2013-02-24 22:53:00,48.2,47.1,30.21,SSW,202,7.8,11.0,96,0.00,,,0.00,0.00,VWS V14.01,2013-02-25 06:53:00,
2013-02-24 22:58:00,48.2,47.4,30.21,South,180,11.0,11.0,97,0.00,,,0.00,0.00,VWS V14.01,2013-02-25 06:58:00,
2013-02-24 23:00:00,48.2,47.4,30.18,SE,135,9.0,14.3,97,0.00,,,0.00,0.00,VWS V14.01,2013-02-25 07:00:00,
2013-02-24 23:03:00,48.2,47.4,30.21,SW,225,8.7,8.7,97,0.00,,,0.00,0.00,VWS V14.01,2013-02-25 07:03:00,
2013-02-24 23:08:00,48.0,47.2,30.21,SSW,202,3.4,8.7,97,0.00,,,0.00,0.00,VWS V14.01,2013-02-25 07:08:00,
2013-02-24 23:13:00,48.2,47.4,30.18,SE,135,10.5,10.5,97,0.00,,,0.00,0.00,VWS V14.01,2013-02-25 07:13:00,
2013-02-24 23:15:00,48.6,47.5,30.21,SSW,202,3.4,11.9,96,0.00,,,0.00,0.00,VWS V14.01,2013-02-25 07:15:00,
2013-02-24 23:18:00,48.4,47.6,30.18,East,90,3.1,7.4,97,0.00,,,0.00,0.00,VWS V14.01,2013-02-25 07:18:00,
2013-02-24 23:23:00,48.4,47.3,30.18,South,180,10.5,10.5,96,0.00,,,0.00,0.00,VWS V14.01,2013-02-25 07:23:00,
2013-02-24 23:28:00,48.4,47.3,30.18,ESE,112,8.7,10.5,96,0.00,,,0.00,0.00,VWS V14.01,2013-02-25 07:28:00,
2013-02-24 23:30:00,48.6,47.5,30.21,SSE,158,3.1,9.4,96,0.00,,,0.00,0.00,VWS V14.01,2013-02-25 07:30:00,
2013-02-24 23:33:00,48.4,47.3,30.18,ESE,112,6.0,8.5,96,0.00,,,0.00,0.00,VWS V14.01,2013-02-25 07:33:00,
2013-02-24 23:38:00,48.4,47.3,30.18,SE,135,3.6,8.5,96,0.00,,,0.00,0.00,VWS V14.01,2013-02-25 07:38:00,
2013-02-24 23:43:00,48.4,47.6,30.18,SE,135,8.5,8.5,97,0.00,,,0.00,0.00,VWS V14.01,2013-02-25 07:43:00,
2013-02-24 23:45:00,48.4,47.3,30.21,SSW,202,3.6,5.6,96,0.00,,,0.00,0.00,VWS V14.01,2013-02-25 07:45:00,
2013-02-24 23:48:00,48.2,47.4,30.18,ESE,112,5.6,8.7,97,0.00,,,0.00,0.00,VWS V14.01,2013-02-25 07:48:00,
2013-02-24 23:53:00,48.2,47.4,30.18,SE,135,6.0,8.7,97,0.00,,,0.00,0.00,VWS V14.01,2013-02-25 07:53:00,
2013-02-24 23:58:00,48.2,47.4,30.18,ENE,68,3.8,14.3,97,0.00,,,0.00,0.00,VWS V14.01,2013-02-25 07:58:00,